Fort Lewis, WA
on Thursday, December 27, 2012

Thursday
Previous Day Next Day
Daily Summary
 ActualAverage (KOLM)Record (KOLM)
Temperature
Mean Temperature °F 38°F  
Max Temperature 45°F 44°F 58°F (1980)
Min Temperature 33°F 33°F 16°F (1977)
Degree Days
Heating Degree Days 26 27  
Month to date heating degree days 718  
Since 1 July heating degree days 2163  
Cooling Degree Days 0 0  
Month to date cooling degree days 0  
Year to date cooling degree days 106  
Moisture
Dew Point 38°F   
Average Humidity 91    
Maximum Humidity 98    
Minimum Humidity 72    
Precipitation
Precipitation 0.01 in 0.23 in 2.94 in (1949)
Month to date precipitation 6.56  
Year to date precipitation 49.10  
Wind
Wind Speed 11 mph   
Max Wind Speed 15 mph   
Max Gust Speed 23 mph   
Visibility 10 miles   
Events     

Key: T is trace of precipitation, MM is missing value
Source: NWS Daily Summary
Time(PST)TemperatureDew PointHumidity Pressure Visibility Wind DirectionWind SpeedGust SpeedPrecipitationEvents Conditions
12:02 AM 41.0°F 39.2°F 93% 29.93 in 10.0 miles South 15.0 mph - N/A   Overcast
12:12 AM 41.0°F 39.2°F 93% 29.93 in 10.0 miles South 12.7 mph - N/A   Overcast
12:17 AM 41.0°F 39.2°F 93% 29.93 in 10.0 miles South 13.8 mph - N/A   Overcast
12:47 AM 41.0°F 39.2°F 93% 29.93 in 10.0 miles SSE 15.0 mph 23.0 mph N/A   Scattered Clouds
12:57 AM 41.0°F 39.2°F 93% 29.94 in 10.0 miles SSE 13.8 mph - N/A   Mostly Cloudy
12:58 AM 40.8°F 39.2°F 94% 29.96 in 10.0 miles SSE 13.8 mph - 0.01 in   Mostly Cloudy
1:03 AM 41.0°F 39.2°F 93% 29.94 in 10.0 miles SSE 15.0 mph - N/A   Scattered Clouds
1:08 AM 41.0°F 39.2°F 93% 29.94 in 10.0 miles SSE 13.8 mph - N/A   Mostly Cloudy
1:28 AM 41.0°F 39.2°F 93% 29.95 in 10.0 miles SSE 11.5 mph - N/A   Overcast
1:33 AM 41.0°F 39.2°F 93% 29.96 in 10.0 miles South 11.5 mph - N/A   Overcast
1:43 AM 41.0°F 39.2°F 93% 29.96 in 10.0 miles SSE 10.4 mph - N/A   Overcast
1:58 AM 41.0°F 39.4°F 94% 29.99 in 10.0 miles SSE 10.4 mph - N/A   Overcast
2:18 AM 41.0°F 39.2°F 93% 29.98 in 10.0 miles SSE 10.4 mph - N/A   Overcast
2:53 AM 41.0°F 39.2°F 93% 29.99 in 10.0 miles SSE 11.5 mph - N/A   Overcast
2:58 AM 41.0°F 39.4°F 94% 30.01 in 10.0 miles SSE 10.4 mph - N/A   Overcast
3:38 AM 41.0°F 39.2°F 93% 29.99 in 10.0 miles SSE 9.2 mph - N/A   Overcast
3:43 AM 41.0°F 39.2°F 93% 30.00 in 10.0 miles SSE 9.2 mph - N/A   Overcast
3:48 AM 41.0°F 39.2°F 93% 29.99 in 10.0 miles SSE 9.2 mph - N/A   Overcast
3:58 AM 41.0°F 39.4°F 94% 30.02 in 10.0 miles South 8.1 mph - N/A   Overcast
4:23 AM 41.0°F 39.2°F 93% 30.00 in 10.0 miles SSE 10.4 mph - N/A   Overcast
4:58 AM 40.3°F 39.0°F 95% 30.03 in 10.0 miles SSE 8.1 mph - N/A   Overcast
5:13 AM 41.0°F 39.2°F 93% 30.01 in 10.0 miles SSE 9.2 mph - N/A   Overcast
5:23 AM 41.0°F 39.2°F 93% 30.02 in 10.0 miles SSE 8.1 mph - N/A   Overcast
5:28 AM 41.0°F 39.2°F 93% 30.02 in 10.0 miles SSE 8.1 mph - N/A   Overcast
5:38 AM 41.0°F 39.2°F 93% 30.02 in 10.0 miles SSE 9.2 mph - N/A   Overcast
5:58 AM 41.0°F 39.4°F 94% 30.05 in 10.0 miles SSE 8.1 mph - N/A   Overcast
6:23 AM 41.0°F 39.2°F 93% 30.03 in 10.0 miles SSE 9.2 mph - N/A   Overcast
6:58 AM 41.0°F 39.4°F 94% 30.06 in 10.0 miles South 8.1 mph - N/A   Overcast
7:18 AM 41.0°F 39.2°F 93% 30.05 in 10.0 miles South 6.9 mph - N/A   Overcast
7:28 AM 41.0°F 39.2°F 93% 30.05 in 10.0 miles South 4.6 mph - N/A   Overcast
7:58 AM 41.2°F 39.6°F 94% 30.08 in 10.0 miles SSE 6.9 mph - N/A   Overcast
8:28 AM 41.0°F 39.2°F 93% 30.07 in 10.0 miles South 6.9 mph - N/A   Overcast
8:33 AM 41.0°F 39.2°F 93% 30.08 in 10.0 miles South 8.1 mph - N/A   Overcast
8:58 AM 41.7°F 39.4°F 91% 30.11 in 10.0 miles South 8.1 mph - N/A   Overcast
9:58 AM 42.8°F 39.7°F 89% 30.12 in 10.0 miles SSE 8.1 mph - N/A   Overcast
10:48 AM 44.6°F 39.2°F 81% 30.12 in 10.0 miles South 6.9 mph - N/A   Overcast
10:58 AM 44.1°F 39.7°F 85% 30.13 in 10.0 miles SSE 9.2 mph - N/A   Overcast
11:23 AM 44.6°F 39.2°F 81% 30.12 in 10.0 miles South 8.1 mph - N/A   Overcast
11:58 AM 44.4°F 38.1°F 79% 30.14 in 10.0 miles SSW 10.4 mph - N/A   Overcast
12:38 PM 44.6°F 39.2°F 81% 30.13 in 10.0 miles South 9.2 mph - N/A   Overcast
12:58 PM 44.8°F 38.5°F 79% 30.15 in 10.0 miles South 8.1 mph - N/A   Overcast
1:58 PM 45.3°F 36.9°F 72% 30.14 in 10.0 miles SSW 8.1 mph - N/A   Overcast
2:03 PM 44.6°F 37.4°F 76% 30.12 in 10.0 miles SSW 9.2 mph - N/A   Overcast
2:10 PM 44.6°F 39.2°F 81% 30.13 in 9.0 miles SW 10.4 mph - N/A   Overcast
2:31 PM 42.8°F 39.2°F 87% 30.13 in 10.0 miles WSW 8.1 mph - N/A   Overcast
2:56 PM 42.8°F 39.2°F 87% 30.13 in 10.0 miles SW 5.8 mph - N/A   Overcast
2:58 PM 42.8°F 38.8°F 86% 30.15 in 10.0 miles SSW 5.8 mph - 0.00 in   Overcast
3:03 PM 42.8°F 39.2°F 87% 30.13 in 10.0 miles SSW 3.5 mph - N/A   Overcast
3:58 PM 43.0°F 36.9°F 79% 30.16 in 10.0 miles South 8.1 mph - N/A   Partly Cloudy
4:58 PM 37.8°F 35.6°F 92% 30.17 in 10.0 miles SSE 5.8 mph - N/A   Partly Cloudy
5:58 PM 35.6°F 34.5°F 96% 30.17 in 10.0 miles SSE 5.8 mph - N/A   Scattered Clouds
6:58 PM 37.0°F 36.3°F 97% 30.17 in 10.0 miles SSE 6.9 mph - N/A   Overcast
7:58 PM 36.9°F 35.8°F 96% 30.16 in 10.0 miles SE 5.8 mph - N/A   Overcast
8:58 PM 34.7°F 34.0°F 97% 30.16 in 10.0 miles SE 6.9 mph - N/A   Clear
9:58 PM 35.1°F 34.3°F 97% 30.17 in 10.0 miles ESE 3.5 mph - N/A   Mostly Cloudy
10:58 PM 33.8°F 33.3°F 98% 30.17 in 10.0 miles SE 4.6 mph - N/A   Mostly Cloudy
11:58 PM 34.5°F 33.4°F 96% 30.17 in 10.0 miles SSE 3.5 mph - N/A   Overcast
Moon Phase
Dec. 27 Dec. 28 Jan. 04 Jan. 11 Jan. 18
Sunrise:07:55 AM (PST) Moon Rise:04:18 PM (PST)12/27
Sunset:04:27 PM (PST) Moon Set:07:08 AM (PST)12/27

Copyright © 2014 The Weather Underground, Inc.